Time,TemperatureF,DewpointF,PressureIn,WindDirection,WindDirectionDegrees,WindSpeedMPH,WindSpeedGustMPH,Humidity,HourlyPrecipIn,Conditions,Clouds,dailyrainin,SoftwareType,DateUTC
2013-01-10 00:11:00,52.0,43.0,30.12,East,80,0.0,-999.0,71,-99.99,,,0.00,weatherlink.com 1.10,2013-01-10 06:11:00,
2013-01-10 00:27:00,51.9,43.0,30.11,ENE,58,4.0,-999.0,72,-99.99,,,0.00,weatherlink.com 1.10,2013-01-10 06:27:00,
2013-01-10 00:41:00,51.9,43.0,30.10,NE,38,4.0,-999.0,72,-99.99,,,0.00,weatherlink.com 1.10,2013-01-10 06:41:00,
2013-01-10 00:56:00,52.0,43.0,30.09,ENE,67,0.0,-999.0,72,-99.99,,,0.00,weatherlink.com 1.10,2013-01-10 06:56:00,
2013-01-10 01:11:00,52.3,43.0,30.09,ESE,121,5.0,-999.0,71,-99.99,,,0.00,weatherlink.com 1.10,2013-01-10 07:11:00,
2013-01-10 01:27:00,52.5,43.0,30.09,ENE,74,4.0,-999.0,71,-99.99,,,0.00,weatherlink.com 1.10,2013-01-10 07:27:00,
2013-01-10 01:41:00,52.6,43.0,30.09,ENE,73,6.0,-999.0,71,-99.99,,,0.00,weatherlink.com 1.10,2013-01-10 07:41:00,
2013-01-10 01:56:00,52.3,44.0,30.09,East,89,4.0,-999.0,73,-99.99,,,0.00,weatherlink.com 1.10,2013-01-10 07:56:00,
2013-01-10 02:11:00,51.9,44.0,30.09,ENE,77,3.0,-999.0,75,-99.99,,,0.00,weatherlink.com 1.10,2013-01-10 08:11:00,
2013-01-10 02:27:00,51.1,44.0,30.08,East,82,7.0,-999.0,77,-99.99,,,0.00,weatherlink.com 1.10,2013-01-10 08:27:00,
2013-01-10 02:41:00,50.4,44.0,30.06,ENE,78,1.0,-999.0,80,-99.99,,,0.00,weatherlink.com 1.10,2013-01-10 08:41:00,
2013-01-10 02:56:00,50.2,45.0,30.05,East,81,3.0,-999.0,82,-99.99,,,0.00,weatherlink.com 1.10,2013-01-10 08:56:00,
2013-01-10 03:11:00,50.4,45.0,30.05,ENE,69,4.0,-999.0,82,-99.99,,,0.00,weatherlink.com 1.10,2013-01-10 09:11:00,
2013-01-10 03:27:00,50.5,45.0,30.04,East,91,2.0,-999.0,82,-99.99,,,0.00,weatherlink.com 1.10,2013-01-10 09:27:00,
2013-01-10 03:41:00,50.4,45.0,30.04,ENE,73,3.0,-999.0,83,-99.99,,,0.00,weatherlink.com 1.10,2013-01-10 09:41:00,
2013-01-10 03:56:00,50.2,46.0,30.03,ENE,69,0.0,-999.0,84,-99.99,,,0.00,weatherlink.com 1.10,2013-01-10 09:56:00,
2013-01-10 04:11:00,50.1,46.0,30.01,ENE,65,0.0,-999.0,85,-99.99,,,0.02,weatherlink.com 1.10,2013-01-10 10:11:00,
2013-01-10 04:27:00,49.9,46.0,30.00,NE,45,0.0,-999.0,85,-99.99,,,0.04,weatherlink.com 1.10,2013-01-10 10:27:00,
2013-01-10 04:41:00,49.9,46.0,29.99,ENE,73,3.0,-999.0,86,-99.99,,,0.04,weatherlink.com 1.10,2013-01-10 10:41:00,
2013-01-10 04:56:00,49.8,46.0,29.98,East,80,3.0,-999.0,87,-99.99,,,0.04,weatherlink.com 1.10,2013-01-10 10:56:00,
2013-01-10 05:11:00,49.8,46.0,29.97,ENE,73,7.0,-999.0,87,-99.99,,,0.04,weatherlink.com 1.10,2013-01-10 11:11:00,
2013-01-10 05:27:00,49.8,46.0,29.96,East,97,3.0,-999.0,88,-99.99,,,0.04,weatherlink.com 1.10,2013-01-10 11:27:00,
2013-01-10 05:41:00,49.8,46.0,29.96,ENE,71,3.0,-999.0,88,-99.99,,,0.04,weatherlink.com 1.10,2013-01-10 11:41:00,
2013-01-10 05:56:00,49.8,47.0,29.95,ENE,73,0.0,-999.0,89,-99.99,,,0.04,weatherlink.com 1.10,2013-01-10 11:56:00,
2013-01-10 06:11:00,49.8,47.0,29.95,ENE,74,5.0,-999.0,89,-99.99,,,0.04,weatherlink.com 1.10,2013-01-10 12:11:00,
2013-01-10 06:27:00,49.9,47.0,29.94,ENE,60,2.0,-999.0,89,-99.99,,,0.05,weatherlink.com 1.10,2013-01-10 12:27:00,
2013-01-10 06:41:00,49.9,47.0,29.94,East,80,2.0,-999.0,89,-99.99,,,0.06,weatherlink.com 1.10,2013-01-10 12:41:00,
2013-01-10 06:56:00,49.9,47.0,29.94,ENE,71,4.0,-999.0,90,-99.99,,,0.06,weatherlink.com 1.10,2013-01-10 12:56:00,
2013-01-10 07:11:00,50.1,47.0,29.94,ENE,59,2.0,-999.0,90,-99.99,,,0.06,weatherlink.com 1.10,2013-01-10 13:11:00,
2013-01-10 07:27:00,49.9,47.0,29.95,East,97,0.0,-999.0,90,-99.99,,,0.06,weatherlink.com 1.10,2013-01-10 13:27:00,
2013-01-10 07:41:00,49.9,47.0,29.95,East,84,0.0,-999.0,90,-99.99,,,0.06,weatherlink.com 1.10,2013-01-10 13:41:00,
2013-01-10 07:56:00,50.1,47.0,29.95,East,84,0.0,-999.0,90,-99.99,,,0.07,weatherlink.com 1.10,2013-01-10 13:56:00,
2013-01-10 08:11:00,49.9,47.0,29.95,East,84,0.0,-999.0,91,-99.99,,,0.07,weatherlink.com 1.10,2013-01-10 14:11:00,
2013-01-10 08:27:00,49.9,47.0,29.94,ENE,65,0.0,-999.0,91,-99.99,,,0.07,weatherlink.com 1.10,2013-01-10 14:27:00,
2013-01-10 08:41:00,49.9,47.0,29.94,ENE,66,0.0,-999.0,91,-99.99,,,0.07,weatherlink.com 1.10,2013-01-10 14:41:00,
2013-01-10 08:56:00,50.1,48.0,29.94,ENE,77,4.0,-999.0,91,-99.99,,,0.07,weatherlink.com 1.10,2013-01-10 14:56:00,
2013-01-10 09:11:00,50.4,48.0,29.93,ENE,76,5.0,-999.0,91,-99.99,,,0.07,weatherlink.com 1.10,2013-01-10 15:11:00,
2013-01-10 09:27:00,50.7,48.0,29.93,East,81,2.0,-999.0,91,-99.99,,,0.07,weatherlink.com 1.10,2013-01-10 15:27:00,
2013-01-10 09:41:00,50.7,48.0,29.91,ENE,74,4.0,-999.0,91,-99.99,,,0.07,weatherlink.com 1.10,2013-01-10 15:41:00,
2013-01-10 09:56:00,51.0,49.0,29.90,ENE,74,4.0,-999.0,91,-99.99,,,0.07,weatherlink.com 1.10,2013-01-10 15:56:00,
2013-01-10 10:11:00,51.4,49.0,29.90,ENE,74,0.0,-999.0,92,-99.99,,,0.07,weatherlink.com 1.10,2013-01-10 16:11:00,
2013-01-10 10:27:00,51.7,50.0,29.90,ENE,64,0.0,-999.0,92,-99.99,,,0.07,weatherlink.com 1.10,2013-01-10 16:27:00,
2013-01-10 10:41:00,52.2,50.0,29.89,ENE,73,0.0,-999.0,92,-99.99,,,0.07,weatherlink.com 1.10,2013-01-10 16:41:00,
2013-01-10 10:56:00,52.9,51.0,29.89,ENE,76,0.0,-999.0,92,-99.99,,,0.07,weatherlink.com 1.10,2013-01-10 16:56:00,
2013-01-10 11:11:00,53.8,52.0,29.88,ESE,111,1.0,-999.0,92,-99.99,,,0.07,weatherlink.com 1.10,2013-01-10 17:11:00,
2013-01-10 11:27:00,54.2,52.0,29.87,ESE,119,0.0,-999.0,92,-99.99,,,0.07,weatherlink.com 1.10,2013-01-10 17:27:00,
2013-01-10 11:41:00,54.8,53.0,29.86,SE,124,8.0,-999.0,92,-99.99,,,0.07,weatherlink.com 1.10,2013-01-10 17:41:00,
2013-01-10 11:56:00,54.8,53.0,29.85,SE,136,7.0,-999.0,92,-99.99,,,0.07,weatherlink.com 1.10,2013-01-10 17:56:00,
2013-01-10 12:11:00,54.7,52.0,29.84,SE,132,8.0,-999.0,91,-99.99,,,0.07,weatherlink.com 1.10,2013-01-10 18:11:00,
2013-01-10 12:27:00,54.5,52.0,29.84,SSE,161,6.0,-999.0,92,-99.99,,,0.08,weatherlink.com 1.10,2013-01-10 18:27:00,
2013-01-10 12:41:00,54.4,52.0,29.83,South,173,4.0,-999.0,92,-99.99,,,0.09,weatherlink.com 1.10,2013-01-10 18:41:00,
2013-01-10 12:56:00,54.4,52.0,29.82,South,184,9.0,-999.0,91,-99.99,,,0.09,weatherlink.com 1.10,2013-01-10 18:56:00,
2013-01-10 13:11:00,54.1,52.0,29.82,SE,143,6.0,-999.0,92,-99.99,,,0.10,weatherlink.com 1.10,2013-01-10 19:11:00,
2013-01-10 13:27:00,54.2,52.0,29.80,SSE,148,3.0,-999.0,92,-99.99,,,0.10,weatherlink.com 1.10,2013-01-10 19:27:00,
2013-01-10 13:41:00,54.1,52.0,29.80,SE,138,5.0,-999.0,92,-99.99,,,0.12,weatherlink.com 1.10,2013-01-10 19:41:00,
2013-01-10 13:56:00,54.1,52.0,29.79,East,95,4.0,-999.0,92,-99.99,,,0.12,weatherlink.com 1.10,2013-01-10 19:56:00,
2013-01-10 14:11:00,54.4,52.0,29.78,SSE,153,0.0,-999.0,92,-99.99,,,0.12,weatherlink.com 1.10,2013-01-10 20:11:00,
2013-01-10 14:27:00,54.7,53.0,29.78,ESE,123,5.0,-999.0,92,-99.99,,,0.12,weatherlink.com 1.10,2013-01-10 20:27:00,
2013-01-10 14:41:00,54.8,53.0,29.77,SE,140,4.0,-999.0,92,-99.99,,,0.12,weatherlink.com 1.10,2013-01-10 20:41:00,
2013-01-10 14:56:00,55.3,53.0,29.78,SSE,166,6.0,-999.0,92,-99.99,,,0.12,weatherlink.com 1.10,2013-01-10 20:56:00,
2013-01-10 15:11:00,55.3,53.0,29.77,South,170,5.0,-999.0,91,-99.99,,,0.12,weatherlink.com 1.10,2013-01-10 21:11:00,
2013-01-10 15:27:00,55.3,53.0,29.78,SSE,153,4.0,-999.0,91,-99.99,,,0.12,weatherlink.com 1.10,2013-01-10 21:27:00,
2013-01-10 15:41:00,55.4,53.0,29.78,South,185,3.0,-999.0,91,-99.99,,,0.12,weatherlink.com 1.10,2013-01-10 21:41:00,
2013-01-10 15:56:00,55.7,53.0,29.78,SSE,159,4.0,-999.0,91,-99.99,,,0.12,weatherlink.com 1.10,2013-01-10 21:56:00,
2013-01-10 16:11:00,55.6,53.0,29.78,South,171,5.0,-999.0,90,-99.99,,,0.12,weatherlink.com 1.10,2013-01-10 22:11:00,
2013-01-10 16:27:00,55.4,53.0,29.78,SSW,192,7.0,-999.0,90,-99.99,,,0.12,weatherlink.com 1.10,2013-01-10 22:27:00,
2013-01-10 16:41:00,54.8,52.0,29.79,SSE,163,5.0,-999.0,90,-99.99,,,0.12,weatherlink.com 1.10,2013-01-10 22:41:00,
2013-01-10 17:11:00,54.1,51.0,29.79,SSE,150,7.0,-999.0,89,-99.99,,,0.13,weatherlink.com 1.10,2013-01-10 23:11:00,
2013-01-10 17:27:00,54.2,50.0,29.78,SSE,167,5.0,-999.0,86,-99.99,,,0.13,weatherlink.com 1.10,2013-01-10 23:27:00,
2013-01-10 17:41:00,53.6,49.0,29.79,South,171,4.0,-999.0,84,-99.99,,,0.13,weatherlink.com 1.10,2013-01-10 23:41:00,
2013-01-10 17:56:00,53.2,48.0,29.78,South,181,10.0,-999.0,83,-99.99,,,0.13,weatherlink.com 1.10,2013-01-10 23:56:00,
2013-01-10 18:11:00,53.1,48.0,29.78,SW,229,3.0,-999.0,83,-99.99,,,0.13,weatherlink.com 1.10,2013-01-11 00:11:00,
2013-01-10 18:27:00,52.8,48.0,29.79,SSW,208,6.0,-999.0,83,-99.99,,,0.13,weatherlink.com 1.10,2013-01-11 00:27:00,
2013-01-10 18:41:00,52.2,47.0,29.80,SW,223,6.0,-999.0,83,-99.99,,,0.13,weatherlink.com 1.10,2013-01-11 00:41:00,
2013-01-10 18:56:00,52.0,47.0,29.80,SSW,209,4.0,-999.0,83,-99.99,,,0.13,weatherlink.com 1.10,2013-01-11 00:56:00,
2013-01-10 19:11:00,51.7,47.0,29.80,SSW,213,1.0,-999.0,83,-99.99,,,0.13,weatherlink.com 1.10,2013-01-11 01:11:00,
2013-01-10 19:27:00,51.6,47.0,29.79,South,180,4.0,-999.0,83,-99.99,,,0.13,weatherlink.com 1.10,2013-01-11 01:27:00,
2013-01-10 19:41:00,51.3,47.0,29.80,SSW,197,4.0,-999.0,85,-99.99,,,0.13,weatherlink.com 1.10,2013-01-11 01:41:00,
2013-01-10 19:56:00,51.0,47.0,29.80,SSW,200,5.0,-999.0,86,-99.99,,,0.13,weatherlink.com 1.10,2013-01-11 01:56:00,
2013-01-10 20:11:00,51.3,47.0,29.80,SSW,204,11.0,-999.0,86,-99.99,,,0.13,weatherlink.com 1.10,2013-01-11 02:11:00,
2013-01-10 20:27:00,51.3,47.0,29.81,SSW,200,9.0,-999.0,86,-99.99,,,0.13,weatherlink.com 1.10,2013-01-11 02:27:00,
2013-01-10 20:41:00,51.3,47.0,29.81,South,174,5.0,-999.0,86,-99.99,,,0.13,weatherlink.com 1.10,2013-01-11 02:41:00,
2013-01-10 20:56:00,51.1,47.0,29.80,SSW,213,6.0,-999.0,86,-99.99,,,0.13,weatherlink.com 1.10,2013-01-11 02:56:00,
2013-01-10 21:11:00,51.1,47.0,29.80,SSW,205,7.0,-999.0,86,-99.99,,,0.13,weatherlink.com 1.10,2013-01-11 03:11:00,
2013-01-10 21:27:00,51.1,47.0,29.80,South,171,7.0,-999.0,86,-99.99,,,0.13,weatherlink.com 1.10,2013-01-11 03:27:00,
2013-01-10 21:41:00,51.1,47.0,29.81,SSW,212,6.0,-999.0,86,-99.99,,,0.13,weatherlink.com 1.10,2013-01-11 03:41:00,
2013-01-10 21:56:00,51.1,47.0,29.82,South,186,5.0,-999.0,86,-99.99,,,0.13,weatherlink.com 1.10,2013-01-11 03:56:00,
2013-01-10 22:11:00,51.1,47.0,29.82,SW,215,7.0,-999.0,86,-99.99,,,0.13,weatherlink.com 1.10,2013-01-11 04:11:00,
2013-01-10 22:27:00,51.0,47.0,29.81,SSE,164,4.0,-999.0,86,-99.99,,,0.13,weatherlink.com 1.10,2013-01-11 04:27:00,
2013-01-10 22:41:00,50.8,47.0,29.82,SSW,204,5.0,-999.0,86,-99.99,,,0.13,weatherlink.com 1.10,2013-01-11 04:41:00,
2013-01-10 22:56:00,50.5,47.0,29.82,SSW,211,10.0,-999.0,86,-99.99,,,0.13,weatherlink.com 1.10,2013-01-11 04:56:00,
2013-01-10 23:11:00,50.5,47.0,29.82,SSW,210,5.0,-999.0,86,-99.99,,,0.13,weatherlink.com 1.10,2013-01-11 05:11:00,
2013-01-10 23:27:00,50.4,46.0,29.81,SW,219,3.0,-999.0,86,-99.99,,,0.13,weatherlink.com 1.10,2013-01-11 05:27:00,
2013-01-10 23:41:00,50.4,46.0,29.81,SW,217,1.0,-999.0,86,-99.99,,,0.13,weatherlink.com 1.10,2013-01-11 05:41:00,
2013-01-10 23:56:00,50.4,46.0,29.82,SW,217,6.0,-999.0,86,-99.99,,,0.13,weatherlink.com 1.10,2013-01-11 05:56:00,